[[{"header":{"parameterUnit":"m.s-1","parameterCategory":1,"la1":30.2991,"la2":30.254,"lo1":-89.0895,"lo2":-89.0444,"dy":0.0017,"dx":0.0017,"nx":28,"ny":28,"refTime":"2024-03-29T03:00:00:Z","depth":0,"parameterNumber":2,"parameterNumberName":"U-component_of_WINDS"},"data":[0,0,0,0,0,0,0,0,0,0,0,0,0,0,0,0,0,0,0,0,0,0,0,0,0,0,0,0,0,0,0,0,0,0,0,0,0,0,0,0,0,0,0,0,0,0,0,0,0,0,0,0,0,0,0,0,0,0,-0.7572,-0.7572,0,-0.7562,-0.7562,-0.7562,-0.7554,-0.7554,-0.7554,-0.7554,-0.7543,-0.7542,-0.7542,0,0,0,0,0,0,0,0,0,0,0,0,0,-0.7585,-0.7585,-0.7572,-0.7572,-0.7572,-0.7562,-0.7562,-0.7562,-0.7554,-0.7554,-0.7554,-0.7554,-0.7543,-0.7542,-0.7542,0,0,0,0,0,0,0,0,0,0,0,0,0,-0.7578,-0.7585,-0.7572,-0.7567,-0.7566,-0.7562,-0.7562,-0.7562,-0.7554,-0.7554,-0.7554,-0.7554,-0.7543,-0.7542,-0.7542,-0.7542,0,0,-0.7541,-0.7541,0,0,0,0,0,0,0,0,-0.7578,-0.7577,-0.7568,-0.7567,-0.7567,-0.7559,-0.7562,-0.7555,-0.7554,-0.7559,-0.7554,-0.7553,-0.7548,-0.7547,-0.7546,-0.7542,-0.7541,-0.7541,-0.7541,-0.7541,-0.7541,0,0,0,0,0,0,0,-0.7579,-0.7578,-0.7568,-0.7568,-0.7567,-0.7565,-0.7564,-0.7561,-0.7554,-0.7558,-0.7558,-0.7556,-0.7548,-0.7546,-0.7545,-0.7541,-0.7541,-0.7541,-0.7541,-0.754,-0.7536,-0.7536,0,0,0,0,0,0,-0.758,-0.7578,-0.7569,-0.7568,-0.7572,-0.7565,-0.7563,-0.7562,-0.7554,-0.7553,-0.7557,-0.7556,-0.7547,-0.7546,-0.7545,-0.7544,-0.7541,-0.754,-0.754,-0.7536,-0.7536,-0.7536,0,0,0,0,0,0,-0.758,-0.7579,-0.7569,-0.7573,-0.7571,-0.7565,-0.7563,-0.7561,-0.756,-0.7553,-0.7552,-0.7556,-0.7546,-0.7545,-0.7543,-0.7544,-0.754,-0.754,-0.7536,-0.7536,-0.7536,-0.7543,0,0,0,0,0,0,-0.7581,-0.758,-0.758,-0.7573,-0.7571,-0.7567,-0.7563,-0.7561,-0.7559,-0.7558,-0.7552,-0.7551,-0.7546,-0.7543,-0.7542,-0.7543,-0.754,-0.7536,-0.7536,-0.7536,-0.7542,-0.7543,-0.7544,0,0,0,0,0,-0.7581,-0.7582,-0.758,-0.7578,-0.7571,-0.7567,-0.7566,-0.7561,-0.7559,-0.7559,-0.7555,-0.7551,-0.7544,-0.7543,-0.7542,-0.7543,-0.7535,-0.7536,-0.7536,-0.7542,-0.7543,-0.7544,0,0,0,0,0,0,-0.7589,-0.7581,-0.7578,-0.7577,-0.7573,-0.7566,-0.7566,-0.7562,-0.7559,-0.7558,-0.7552,-0.7551,-0.7549,-0.7545,-0.7545,-0.7542,-0.7539,-0.7539,-0.7544,-0.7545,-0.7546,-0.7546,-0.7539,0,0,0,0,0,-0.759,-0.7588,-0.7581,-0.758,-0.7579,-0.7572,-0.7571,-0.7567,-0.7563,-0.7561,-0.7556,-0.7552,-0.7549,-0.7547,-0.7543,-0.7542,-0.754,-0.7542,-0.7542,-0.7543,-0.7543,-0.7542,-0.7542,-0.7537,-0.7537,-0.7537,0,0,-0.7594,-0.7589,-0.7588,-0.7582,-0.7578,-0.7576,-0.7571,-0.7569,-0.7567,-0.756,-0.7558,-0.7554,-0.7549,-0.7547,-0.7546,-0.7544,-0.7544,-0.7543,-0.7544,-0.7543,-0.7542,-0.7542,-0.7543,-0.7537,-0.7537,-0.7537,0,0,-0.7598,-0.7594,-0.7593,-0.759,-0.7584,-0.758,-0.758,-0.7573,-0.7571,-0.7568,-0.7563,-0.756,-0.7555,-0.7551,-0.7549,-0.7551,-0.7548,-0.755,-0.7554,-0.7552,-0.7553,-0.7553,-0.7554,-0.7554,-0.755,-0.755,-0.755,0,-0.7603,-0.7599,-0.7593,-0.7591,-0.7588,-0.7582,-0.7581,-0.7578,-0.7572,-0.757,-0.7568,-0.7561,-0.7557,-0.7554,-0.7554,-0.7552,-0.7552,-0.7551,-0.7553,-0.7553,-0.7554,-0.7554,-0.7555,-0.7551,-0.7551,-0.7551,-0.7551,0,-0.7604,-0.7602,-0.7601,-0.7595,-0.7593,-0.7591,-0.7585,-0.7583,-0.758,-0.7576,-0.7572,-0.7567,-0.7563,-0.7562,-0.7558,-0.7558,-0.7557,-0.7554,-0.7551,-0.7555,-0.7555,-0.7555,-0.7551,-0.7551,-0.7551,-0.7551,0,0,-0.7614,-0.7604,-0.7604,-0.7601,-0.7595,-0.7592,-0.759,-0.7586,-0.7584,-0.758,-0.7578,-0.7573,-0.757,-0.7567,-0.7563,-0.7562,-0.7564,-0.756,-0.7559,-0.7561,-0.7563,-0.7565,-0.7566,-0.7562,-0.7562,-0.7562,-0.7564,0,-0.7617,-0.7613,-0.7608,-0.7605,-0.7603,-0.7597,-0.7595,-0.759,-0.7586,-0.7583,-0.7579,-0.7576,-0.7572,-0.757,-0.7569,-0.7564,-0.7565,-0.7564,-0.756,-0.7559,-0.7561,-0.7566,-0.7568,-0.757,-0.7564,-0.7564,-0.7564,0,-0.762,-0.7616,-0.7614,-0.7607,-0.7606,-0.7604,-0.7599,-0.7596,-0.7591,-0.7588,-0.7585,-0.7581,-0.7578,-0.7575,-0.7571,-0.757,-0.7568,-0.7565,-0.7565,-0.7565,-0.7562,-0.7566,-0.7571,-0.7571,-0.7564,-0.7564,-0.7564,0,-0.7627,-0.7621,-0.7619,-0.7616,-0.7609,-0.7608,-0.7604,-0.7599,-0.7596,-0.7592,-0.759,-0.7585,-0.7583,-0.7579,-0.7574,-0.7572,-0.757,-0.7567,-0.7567,-0.7568,-0.7567,-0.7567,-0.7572,-0.7566,-0.7566,-0.7566,-0.7566,0,-0.7632,-0.763,-0.7622,-0.762,-0.7618,-0.7612,-0.761,-0.7606,-0.7602,-0.7599,-0.7593,-0.7591,-0.7584,-0.7581,-0.7576,-0.7573,-0.7572,-0.757,-0.7568,-0.757,-0.757,-0.7569,-0.7568,-0.7566,-0.7566,-0.7566,-0.7566,0,-0.7639,-0.7634,-0.763,-0.7623,-0.7621,-0.762,-0.7614,-0.7612,-0.7607,-0.7604,-0.7603,-0.7596,-0.7592,-0.7586,-0.758,-0.7577,-0.7574,-0.7573,-0.7576,-0.7576,-0.7576,-0.7576,-0.758,-0.758,-0.7574,-0.7574,-0.7574,0,-0.7643,-0.7641,-0.7634,-0.7631,-0.7628,-0.7625,-0.7622,-0.7616,-0.7613,-0.7607,-0.7606,-0.7601,-0.7597,-0.7591,-0.7585,-0.758,-0.7578,-0.758,-0.7577,-0.7579,-0.7578,-0.7578,-0.7578,-0.758,-0.758,-0.758,-0.7581,0,-0.7649,-0.7646,-0.7642,-0.7637,-0.7634,-0.763,-0.7626,-0.7624,-0.7617,-0.7614,-0.761,-0.7607,-0.76,-0.7596,-0.759,-0.7586,-0.7582,-0.7581,-0.7581,-0.7583,-0.7585,-0.7584,-0.7578,-0.7581,-0.7581,-0.7581,-0.7581,-0.7581,-0.7654,-0.7653,-0.7647,-0.7643,-0.7639,-0.7635,-0.7633,-0.7628,-0.7624,-0.7618,-0.7615,-0.7611,-0.7605,-0.7597,-0.7593,-0.7589,-0.7588,-0.7588,-0.7588,-0.7588,-0.7588,-0.7586,-0.7588,-0.7588,-0.7588,-0.7588,-0.7588,0,-0.766,-0.7656,-0.7652,-0.7646,-0.7643,-0.7639,-0.7634,-0.7632,-0.7628,-0.7623,-0.7619,-0.7614,-0.7609,-0.7603,-0.7597,-0.7596,-0.7594,-0.7595,-0.7595,-0.7594,-0.759,-0.7591,-0.7596,-0.7596,-0.7596,-0.7596,-0.7596,-0.7596,-0.7663,-0.766,-0.7656,-0.7651,-0.7647,-0.7643,-0.764,-0.7636,-0.7632,-0.7627,-0.7623,-0.7619,-0.7613,-0.7607,-0.7602,-0.7601,-0.7599,-0.76,-0.7598,-0.7595,-0.7594,-0.7593,-0.7594,-0.76,-0.76,-0.7602,-0.7602,-0.7602]},{"header":{"parameterUnit":"m.s-1","parameterCategory":1,"la1":30.2991,"la2":30.254,"lo1":-89.0895,"lo2":-89.0444,"dy":0.0017,"dx":0.0017,"nx":28,"ny":28,"refTime":"2024-03-29T03:00:00:Z","depth":0,"parameterNumber":3,"parameterNumberName":"V-component_of_WINDS"},"data":[0,0,0,0,0,0,0,0,0,0,0,0,0,0,0,0,0,0,0,0,0,0,0,0,0,0,0,0,0,0,0,0,0,0,0,0,0,0,0,0,0,0,0,0,0,0,0,0,0,0,0,0,0,0,0,0,0,0,2.542,2.5421,0,2.5512,2.5513,2.5515,2.5499,2.5498,2.5496,2.5495,2.5584,2.5588,2.5592,0,0,0,0,0,0,0,0,0,0,0,0,0,2.5226,2.523,2.542,2.5421,2.5422,2.5512,2.5514,2.5515,2.55,2.5498,2.5496,2.5494,2.5583,2.5588,2.5592,0,0,0,0,0,0,0,0,0,0,0,0,0,2.5314,2.5231,2.542,2.5426,2.5427,2.5512,2.5514,2.5515,2.55,2.5498,2.5495,2.5493,2.5582,2.5587,2.5593,2.5676,0,0,2.5611,2.5613,0,0,0,0,0,0,0,0,2.5309,2.5321,2.5424,2.5426,2.5427,2.5492,2.5478,2.5569,2.5501,2.5472,2.5495,2.5492,2.5555,2.5563,2.5586,2.568,2.5684,2.5611,2.5615,2.5617,2.5619,0,0,0,0,0,0,0,2.5303,2.5317,2.5456,2.5425,2.5428,2.5422,2.5432,2.5495,2.5526,2.5475,2.5474,2.5485,2.5556,2.558,2.5587,2.5686,2.5611,2.5616,2.562,2.5622,2.5853,2.5856,0,0,0,0,0,0,2.5296,2.5312,2.5454,2.5459,2.5361,2.5428,2.5439,2.5474,2.5525,2.5531,2.5487,2.5484,2.5571,2.5581,2.5591,2.5691,2.5617,2.5623,2.5626,2.5851,2.5854,2.5857,0,0,0,0,0,0,2.5292,2.5308,2.545,2.5385,2.5403,2.5434,2.5473,2.5477,2.5501,2.5535,2.5539,2.5506,2.557,2.5582,2.5655,2.5694,2.5625,2.5631,2.5847,2.5851,2.5855,2.5894,0,0,0,0,0,0,2.5286,2.5307,2.534,2.5386,2.5407,2.5515,2.5475,2.548,2.5511,2.5508,2.5554,2.5559,2.5569,2.5647,2.5661,2.5701,2.5635,2.5844,2.5849,2.5854,2.5889,2.5898,2.5906,0,0,0,0,0,2.5279,2.5346,2.5342,2.5359,2.5449,2.5517,2.5528,2.5539,2.5515,2.5547,2.5569,2.5558,2.5688,2.5654,2.567,2.5713,2.5842,2.5848,2.5854,2.5885,2.5896,2.5906,0,0,0,0,0,0,2.5302,2.5352,2.5348,2.5432,2.5471,2.5514,2.5556,2.5551,2.5596,2.5591,2.5601,2.5612,2.5686,2.5706,2.5668,2.5796,2.5761,2.5771,2.5779,2.5791,2.5799,2.5792,2.564,0,0,0,0,0,2.5317,2.537,2.541,2.548,2.55,2.5525,2.5555,2.556,2.5599,2.5615,2.5642,2.568,2.5729,2.5761,2.5808,2.5892,2.5901,2.5929,2.5938,2.5945,2.5952,2.5998,2.6011,2.5876,2.5876,2.5876,0,0,2.5348,2.5382,2.5414,2.5486,2.5516,2.5569,2.5538,2.5595,2.5635,2.5623,2.5694,2.5715,2.5758,2.5837,2.5873,2.5856,2.5992,2.5952,2.5958,2.5962,2.6006,2.6018,2.603,2.588,2.588,2.5879,0,0,2.5432,2.5463,2.5525,2.5557,2.5604,2.562,2.5635,2.5679,2.5693,2.5765,2.5758,2.5804,2.5888,2.5919,2.5946,2.6042,2.6033,2.6057,2.6102,2.6146,2.6157,2.6166,2.62,2.6213,2.6064,2.6064,2.6065,0,2.5464,2.5545,2.5557,2.5616,2.5647,2.5641,2.5703,2.5733,2.5792,2.5813,2.5794,2.5901,2.5929,2.6015,2.6038,2.606,2.6077,2.6051,2.6155,2.6164,2.6173,2.6206,2.6219,2.6067,2.6067,2.6066,2.6066,0,2.5582,2.5638,2.5682,2.5742,2.5778,2.5838,2.5858,2.5893,2.5896,2.5913,2.5986,2.602,2.6074,2.6094,2.6096,2.6181,2.6169,2.6153,2.6118,2.6189,2.6219,2.6232,2.6071,2.607,2.6069,2.6068,0,0,2.5682,2.5748,2.5764,2.5791,2.5843,2.5886,2.5945,2.5999,2.6029,2.607,2.6119,2.6192,2.6177,2.6207,2.6213,2.6252,2.6325,2.623,2.6231,2.6247,2.642,2.6432,2.6446,2.632,2.6323,2.6325,2.6416,0,2.577,2.5877,2.589,2.5984,2.6036,2.6031,2.6083,2.6119,2.6137,2.6183,2.6202,2.6253,2.623,2.6248,2.6287,2.6308,2.636,2.6302,2.6365,2.6367,2.6354,2.6462,2.6475,2.656,2.6428,2.643,2.6432,0,2.5888,2.5934,2.6034,2.6079,2.6101,2.6147,2.6198,2.6242,2.6283,2.6293,2.6328,2.6329,2.6388,2.6352,2.6434,2.6394,2.6421,2.6435,2.6439,2.6445,2.6404,2.6471,2.6588,2.66,2.6451,2.6449,2.6448,0,2.595,2.6037,2.6109,2.6132,2.6186,2.6218,2.6242,2.6281,2.6313,2.6357,2.6378,2.6428,2.6455,2.6493,2.6507,2.6479,2.6588,2.6553,2.6598,2.6597,2.6621,2.6619,2.6743,2.6638,2.6638,2.6638,2.6638,0,2.6047,2.6109,2.6138,2.6181,2.6249,2.6263,2.633,2.6352,2.6387,2.6433,2.6432,2.6476,2.6491,2.6537,2.6548,2.6615,2.6627,2.6636,2.6638,2.6636,2.6635,2.6653,2.6648,2.6641,2.664,2.664,2.6639,0,2.6129,2.6151,2.6228,2.6273,2.6286,2.6334,2.6372,2.6414,2.6432,2.6491,2.6506,2.6534,2.6588,2.6606,2.667,2.6678,2.6755,2.6752,2.6742,2.6742,2.6786,2.6782,2.6926,2.6946,2.6828,2.6829,2.683,0,2.6189,2.6236,2.6288,2.632,2.6345,2.6397,2.643,2.6445,2.6479,2.653,2.6565,2.6619,2.6664,2.675,2.6775,2.6825,2.6823,2.687,2.683,2.6827,2.6823,2.682,2.6825,2.6877,2.6878,2.6879,2.688,0,2.6294,2.6303,2.6352,2.6404,2.6444,2.6486,2.6526,2.6552,2.6573,2.6612,2.6668,2.6702,2.677,2.6823,2.6874,2.6897,2.6892,2.6893,2.6906,2.6904,2.6896,2.6901,2.6762,2.6889,2.6888,2.6888,2.6887,2.6887,2.6367,2.6409,2.6452,2.6506,2.6538,2.6576,2.6617,2.6641,2.6689,2.6746,2.6751,2.6812,2.6852,2.692,2.6945,2.6992,2.6978,2.6997,2.7002,2.7006,2.701,2.6889,2.7001,2.7001,2.7001,2.7001,2.7,0,2.6472,2.6499,2.6549,2.6606,2.6649,2.6642,2.6686,2.6722,2.6776,2.6814,2.6858,2.6923,2.6975,2.7004,2.7056,2.7088,2.7087,2.7101,2.7098,2.7104,2.7019,2.7003,2.7101,2.7101,2.7101,2.7101,2.7101,2.7101,2.6531,2.6602,2.6616,2.6702,2.6728,2.6789,2.6815,2.685,2.688,2.6953,2.6997,2.7016,2.7051,2.7105,2.7152,2.7159,2.7178,2.7194,2.72,2.712,2.711,2.71,2.7084,2.7198,2.7198,2.728,2.7281,2.7282]}]]